GW3523 Weather Reports


time (UTC)temp
C
wind
direction
speed
KPH
gust
KPH
rain 1hr
cm
rain 24hr
cm
rain mn
cm
humidity
%
barometer
mb
20260504100125 2 283 0.0 0.0 0.00 0.00 0.00 84 1012.6
20260504081518 6 285 1.6 3.2 0.00 0.00 0.00 67 1012.9
20260504081013 6 311 1.6 3.2 0.00 0.00 0.00 66 1013.0
20260504080510 6 301 1.6 1.6 0.00 0.00 0.00 65 1012.9
20260504050311 6 305 3.2 3.2 0.00 0.00 0.00 67 1012.7
20260504045808 6 283 1.6 1.6 0.00 0.00 0.00 66 1012.9
20260504045304 6 270 0.0 0.0 0.00 0.00 0.00 67 1012.9
20260504044800 6 269 0.0 0.0 0.00 0.00 0.00 68 1012.9
20260504044258 5 271 0.0 0.0 0.00 0.00 0.00 73 1013.1
20260504043755 5 266 0.0 0.0 0.00 0.00 0.00 74 1012.9
20260504043251 5 258 0.0 0.0 0.00 0.00 0.00 73 1013.0
20260504042750 6 264 0.0 0.0 0.00 0.00 0.00 70 1012.8
20260504042245 5 292 1.6 1.6 0.00 0.00 0.00 72 1012.7
20260504041742 5 265 0.0 0.0 0.00 0.00 0.00 72 1012.8
20260504041238 5 267 0.0 0.0 0.00 0.00 0.00 72 1012.8
20260504040734 6 271 0.0 0.0 0.00 0.00 0.00 70 1012.5
20260504040232 6 262 0.0 0.0 0.00 0.00 0.00 69 1012.6
20260504035728 6 265 0.0 0.0 0.00 0.00 0.00 68 1012.7
20260504035225 6 266 0.0 0.0 0.00 0.00 0.00 66 1012.6
20260504034723 6 261 0.0 0.0 0.00 0.00 0.00 69 1012.7
20260504034220 6 264 0.0 0.0 0.00 0.00 0.00 69 1012.4
20260504033717 6 271 0.0 0.0 0.00 0.00 0.00 69 1012.6
20260504033215 6 275 0.0 0.0 0.00 0.00 0.00 66 1012.5
20260504032711 7 259 0.0 0.0 0.00 0.00 0.00 63 1012.5
20260504032209 7 285 0.0 1.6 0.00 0.00 0.00 62 1012.5
20260504031705 7 271 0.0 0.0 0.00 0.00 0.00 62 1012.5
20260504031202 7 279 1.6 1.6 0.00 0.00 0.00 60 1012.5
20260504030658 7 281 0.0 0.0 0.00 0.00 0.00 59 1012.5
20260504030156 7 284 1.6 1.6 0.00 0.00 0.00 59 1012.6
20260504025652 8 276 0.0 0.0 0.00 0.00 0.00 59 1012.5
20260504025149 8 290 1.6 1.6 0.00 0.00 0.00 58 1012.4
20260504024646 8 290 0.0 0.0 0.00 0.00 0.00 58 1012.6
20260504024142 8 269 0.0 0.0 0.00 0.00 0.00 58 1012.4
20260504023639 8 264 0.0 0.0 0.00 0.00 0.00 57 1012.4
20260504023135 8 280 0.0 0.0 0.00 0.00 0.00 56 1012.4
20260504022632 8 274 0.0 0.0 0.00 0.00 0.00 57 1012.4
20260504022127 8 271 1.6 3.2 0.00 0.00 0.00 56 1012.5
20260504021626 9 284 0.0 1.6 0.00 0.00 0.00 55 1012.7
20260504021122 8 283 0.0 0.0 0.00 0.00 0.00 54 1012.6
20260504020619 9 268 0.0 1.6 0.00 0.00 0.00 54 1012.5
20260504020115 9 272 0.0 0.0 0.00 0.00 0.00 54 1012.4
20260504015612 9 280 0.0 0.0 0.00 0.00 0.00 52 1012.5
20260504015108 9 292 1.6 1.6 0.00 0.00 0.00 53 1012.4
20260504014604 9 276 0.0 0.0 0.00 0.00 0.00 52 1012.4
20260504014102 9 270 0.0 0.0 0.00 0.00 0.00 52 1012.2
20260504013559 9 267 1.6 1.6 0.00 0.00 0.00 52 1012.2
20260504013056 9 272 0.0 0.0 0.00 0.00 0.00 52 1012.3
20260504012553 10 276 0.0 1.6 0.00 0.00 0.00 51 1012.3
20260504012051 9 263 0.0 0.0 0.00 0.00 0.00 52 1012.3
20260504011547 9 265 0.0 0.0 0.00 0.00 0.00 52 1012.1
20260504011044 9 278 0.0 0.0 0.00 0.00 0.00 53 1012.0
20260504010539 10 274 0.0 0.0 0.00 0.00 0.00 51 1011.9
20260504010036 10 276 0.0 0.0 0.00 0.00 0.00 50 1012.2
20260504005532 10 248 1.6 1.6 0.00 0.00 0.00 49 1012.3
20260504005030 10 275 0.0 0.0 0.00 0.00 0.00 50 1011.9
20260504004528 10 270 0.0 0.0 0.00 0.00 0.00 49 1011.9
20260504004024 10 273 0.0 0.0 0.00 0.00 0.00 48 1011.9
20260504003520 10 264 0.0 0.0 0.00 0.00 0.00 50 1012.0
20260504003018 10 276 0.0 0.0 0.00 0.00 0.00 50 1011.9
20260504002514 10 271 0.0 0.0 0.00 0.00 0.00 49 1011.5
20260504002006 10 261 0.0 0.0 0.00 0.00 0.00 48 1011.7
20260504001503 10 268 0.0 0.0 0.00 0.00 0.00 47 1011.8
20260504000959 10 272 0.0 0.0 0.00 0.00 0.00 47 1011.6
20260504000457 11 271 0.0 0.0 0.00 0.00 0.00 47 1011.6
20260503235954 11 272 0.0 0.0 0.00 0.00 0.00 48 1011.7
20260503235452 11 272 0.0 0.0 0.00 0.00 0.00 47 1011.5
20260503234949 11 264 0.0 0.0 0.00 0.00 0.00 47 1011.4
20260503234446 11 275 0.0 0.0 0.00 0.00 0.00 47 1011.5
20260503233945 11 250 0.0 0.0 0.00 0.00 0.00 47 1011.5
20260503233440 11 271 1.6 1.6 0.00 0.00 0.00 45 1011.5
20260503232937 11 266 0.0 0.0 0.00 0.00 0.00 45 1011.2
20260503232434 12 258 0.0 0.0 0.00 0.00 0.00 46 1011.3
20260503231932 12 259 0.0 0.0 0.00 0.00 0.00 44 1011.3
20260503231429 12 269 0.0 0.0 0.00 0.00 0.00 43 1011.2
20260503230926 12 275 0.0 0.0 0.00 0.00 0.00 42 1011.2
20260503230422 12 259 0.0 0.0 0.00 0.00 0.00 42 1011.2
20260503225920 12 318 0.0 1.6 0.00 0.00 0.00 41 1011.4
20260503225417 13 244 0.0 0.0 0.00 0.00 0.00 41 1011.4
20260503224912 13 274 0.0 0.0 0.00 0.00 0.00 40 1011.2
20260503224409 12 239 0.0 1.6 0.00 0.00 0.00 42 1011.3
20260503223907 13 265 0.0 1.6 0.00 0.00 0.00 38 1011.0
20260503223405 13 256 0.0 0.0 0.00 0.00 0.00 39 1011.2
20260503222900 13 269 0.0 0.0 0.00 0.00 0.00 38 1011.2
20260503222359 13 263 0.0 1.6 0.00 0.00 0.00 38 1011.2
20260503221856 13 194 0.0 0.0 0.00 0.00 0.00 40 1011.3
20260503221355 14 273 0.0 0.0 0.00 0.00 0.00 39 1011.1
20260503220850 13 218 0.0 1.6 0.00 0.00 0.00 39 1011.2
20260503220347 13 236 0.0 1.6 0.00 0.00 0.00 39 1010.9
20260503215844 14 247 0.0 1.6 0.00 0.00 0.00 40 1011.1
20260503215342 15 262 1.6 1.6 0.00 0.00 0.00 38 1011.3
20260503214839 15 255 0.0 1.6 0.00 0.00 0.00 36 1011.1
20260503214336 13 263 0.0 0.0 0.00 0.00 0.00 40 1011.0
20260503213833 15 251 1.6 3.2 0.00 0.00 0.00 38 1011.2
20260503213331 16 267 1.6 1.6 0.00 0.00 0.00 34 1010.9
20260503212828 15 273 0.0 1.6 0.00 0.00 0.00 37 1011.0
20260503212326 16 268 0.0 0.0 0.00 0.00 0.00 36 1010.9
20260503211823 16 254 1.6 1.6 0.00 0.00 0.00 34 1010.9
20260503211319 16 226 3.2 4.8 0.00 0.00 0.00 36 1010.9
20260503210819 16 242 1.6 1.6 0.00 0.00 0.00 38 1010.8
20260503210317 16 245 0.0 1.6 0.00 0.00 0.00 35 1010.8
20260503205812 16 339 3.2 4.8 0.00 0.00 0.00 33 1010.9
20260503205309 16 241 3.2 3.2 0.00 0.00 0.00 34 1010.8
20260503204805 16 260 0.0 1.6 0.00 0.00 0.00 32 1010.9
20260503204303 16 164 3.2 4.8 0.00 0.00 0.00 34 1010.7
20260503203800 16 246 0.0 1.6 0.00 0.00 0.00 33 1010.8
20260503203257 16 284 1.6 1.6 0.00 0.00 0.00 33 1011.2
20260503202754 17 297 1.6 1.6 0.00 0.00 0.00 34 1010.9
20260503202252 17 248 0.0 1.6 0.00 0.00 0.00 33 1011.1
20260503201750 17 242 0.0 0.0 0.00 0.00 0.00 34 1010.9
20260503201247 17 182 3.2 4.8 0.00 0.00 0.00 31 1011.0
20260503200744 16 254 0.0 0.0 0.00 0.00 0.00 35 1010.9
20260503200240 15 222 0.0 1.6 0.00 0.00 0.00 35 1010.9
20260503195737 15 186 3.2 3.2 0.00 0.00 0.00 35 1011.1
20260503195233 15 236 1.6 1.6 0.00 0.00 0.00 36 1011.2
20260503194732 14 324 4.8 4.8 0.00 0.00 0.00 38 1011.2
20260503194226 15 155 4.8 4.8 0.00 0.00 0.00 34 1011.4
20260503193723 16 275 1.6 3.2 0.00 0.00 0.00 32 1011.6
20260503193219 15 257 1.6 3.2 0.00 0.00 0.00 34 1011.6
20260503192715 14 267 0.0 1.6 0.00 0.00 0.00 35 1011.7
20260503192211 13 96 0.0 1.6 0.00 0.00 0.00 37 1011.7
20260503191708 13 287 1.6 3.2 0.00 0.00 0.00 35 1011.6
20260503191205 15 313 0.0 1.6 0.00 0.00 0.00 33 1011.6
20260503190702 15 275 3.2 4.8 0.00 0.00 0.00 35 1011.7
20260503190158 15 225 1.6 1.6 0.00 0.00 0.00 36 1011.8
20260503185655 15 234 1.6 1.6 0.00 0.00 0.00 32 1011.9
20260503185150 15 251 1.6 1.6 0.00 0.00 0.00 34 1012.0
20260503184645 15 88 1.6 3.2 0.00 0.00 0.00 37 1012.0
20260503184142 15 255 0.0 1.6 0.00 0.00 0.00 37 1012.1
20260503183638 16 147 1.6 3.2 0.00 0.00 0.00 34 1012.0
20260503183136 15 213 1.6 3.2 0.00 0.00 0.00 36 1012.1
20260503182634 15 314 1.6 3.2 0.00 0.00 0.00 34 1012.3
20260503182132 14 254 1.6 1.6 0.00 0.00 0.00 37 1012.4
20260503181629 14 226 1.6 3.2 0.00 0.00 0.00 38 1012.3
20260503181125 13 168 1.6 4.8 0.00 0.00 0.00 42 1012.2
20260503180622 13 169 1.6 3.2 0.00 0.00 0.00 41 1012.3
20260503180120 13 309 0.0 1.6 0.00 0.00 0.00 38 1012.5
20260503175617 13 233 0.0 1.6 0.00 0.00 0.00 35 1012.4
20260503175114 13 255 0.0 3.2 0.00 0.00 0.00 39 1012.4
20260503174611 13 177 3.2 4.8 0.00 0.00 0.00 40 1012.5
20260503174108 13 265 3.2 3.2 0.00 0.00 0.00 35 1012.8
20260503173603 13 245 0.0 1.6 0.00 0.00 0.00 37 1012.7
20260503173059 12 230 3.2 3.2 0.00 0.00 0.00 36 1012.8
20260503172557 12 261 3.2 3.2 0.00 0.00 0.00 40 1012.9
20260503172054 13 143 3.2 4.8 0.00 0.00 0.00 38 1012.8
20260503171550 12 225 0.0 0.0 0.00 0.00 0.00 41 1012.8
20260503171048 12 250 1.6 1.6 0.00 0.00 0.00 36 1012.8
20260503170544 11 167 0.0 1.6 0.00 0.00 0.00 39 1013.1
20260503150925 8 318 4.8 4.8 0.00 0.00 0.00 48 1013.5
20260503150421 10 247 0.0 1.6 0.00 0.00 0.00 42 1013.7
20260503131314 7 227 1.6 3.2 0.00 0.00 0.00 61 1013.9
20260503130812 7 285 1.6 3.2 0.00 0.00 0.00 62 1014.3
20260503130309 8 257 0.0 1.6 0.00 0.00 0.00 61 1014.2
20260503110703 3 259 0.0 0.0 0.00 0.00 0.00 74 1013.5
20260503110200 3 245 0.0 0.0 0.00 0.00 0.00 74 1013.5